TimeCDT,TemperatureF,Dew PointF,Humidity,Sea Level PressureIn,VisibilityMPH,Wind Direction,Wind SpeedMPH,Gust SpeedMPH,PrecipitationIn,Events,Conditions,WindDirDegrees,DateUTC
12:56 AM,52.9,46.9,80,30.18,10.0,East,3.5,-,N/A,,Clear,100,2012-09-10 05:56:00
1:56 AM,54.0,48.9,83,30.17,10.0,Calm,Calm,-,N/A,,Clear,0,2012-09-10 06:56:00
2:56 AM,55.9,52.0,87,30.17,10.0,Calm,Calm,-,N/A,,Clear,0,2012-09-10 07:56:00
3:56 AM,52.9,48.9,86,30.17,10.0,Calm,Calm,-,N/A,,Clear,0,2012-09-10 08:56:00
4:56 AM,54.9,50.9,86,30.18,10.0,Calm,Calm,-,N/A,,Clear,0,2012-09-10 09:56:00
5:56 AM,52.9,48.9,86,30.21,10.0,Calm,Calm,-,N/A,,Clear,0,2012-09-10 10:56:00
6:56 AM,52.9,50.0,90,30.23,10.0,Calm,Calm,-,N/A,,Clear,0,2012-09-10 11:56:00
7:56 AM,57.9,52.9,83,30.24,10.0,Calm,Calm,-,N/A,,Clear,0,2012-09-10 12:56:00
8:56 AM,63.9,50.9,63,30.24,10.0,ESE,4.6,-,N/A,,Clear,110,2012-09-10 13:56:00
9:56 AM,66.9,50.9,56,30.24,10.0,SE,5.8,-,N/A,,Clear,130,2012-09-10 14:56:00
10:56 AM,68.9,52.0,55,30.24,10.0,Variable,4.6,-,0.00,,Clear,0,2012-09-10 15:56:00
11:56 AM,70.9,50.0,48,30.22,10.0,SE,4.6,-,N/A,,Clear,140,2012-09-10 16:56:00
12:56 PM,70.9,48.9,46,30.21,10.0,Calm,Calm,-,N/A,,Clear,0,2012-09-10 17:56:00
1:56 PM,72.9,48.9,43,30.19,10.0,SSE,4.6,-,N/A,,Clear,160,2012-09-10 18:56:00
2:56 PM,74.8,48.9,40,30.16,10.0,Variable,3.5,-,N/A,,Clear,0,2012-09-10 19:56:00
3:56 PM,73.9,50.0,43,30.14,10.0,SSE,6.9,-,N/A,,Clear,160,2012-09-10 20:56:00
4:56 PM,73.9,50.9,44,30.13,10.0,SSE,9.2,-,N/A,,Clear,160,2012-09-10 21:56:00
6:56 PM,70.0,50.0,49,30.12,10.0,SSE,6.9,-,N/A,,Clear,160,2012-09-10 23:56:00
7:56 PM,64.9,50.9,60,30.12,10.0,South,4.6,-,N/A,,Clear,190,2012-09-11 00:56:00
8:56 PM,61.9,50.9,67,30.13,10.0,South,5.8,-,N/A,,Clear,170,2012-09-11 01:56:00
9:56 PM,59.0,50.9,74,30.13,10.0,South,5.8,-,N/A,,Clear,180,2012-09-11 02:56:00
11:56 PM,55.9,50.0,80,30.13,10.0,South,6.9,-,N/A,,Clear,190,2012-09-11 04:56:00